DEVICE NETWORK
Gateway Status
13 ESP · realtime ~1s · history 60s
Weather
WS-MOD-01
OFFLINE
Actuator
ACT-MOD-01
OFFLINE
Mainboard L3
MB-L3-01
OFFLINE
Mainboard L5
MB-L5-01
OFFLINE
Remote AC
AC-REMOTE-01
OFFLINE
PZEM L3-01
PWR-L3-01
OFFLINE
PZEM L3-02
PWR-L3-02
OFFLINE
PZEM L3-03
PWR-L3-03
OFFLINE
PZEM L3-04
PWR-L3-04
OFFLINE
PZEM L5-01
PWR-L5-01
OFFLINE
PZEM L5-02
PWR-L5-02
OFFLINE
PZEM L5-03
PWR-L5-03
OFFLINE
PZEM L5-04
PWR-L5-04
OFFLINE
REPORT FILTER
DATABASE HISTORY
Periode & Sensor
REPORT RESULT
Data Sensor
02/09/2026 — 02/09/2026
EXPORT CSV
| NO | TANGGAL | WAKTU | DEVICE | CHANNEL | SENSOR | VALUE | UNIT |
|---|---|---|---|---|---|---|---|
| 10001 | 02/09/2026 | 14:55:47 | MB-L5-01Mainboard Lantai 5 | L5-RAD-01 | Radiation 1 | 1.00 | W/m² |
| 10002 | 02/09/2026 | 14:55:47 | MB-L3-01Mainboard Lantai 3 | L3-SHT-02-T | SHT20 2 Temperature | 32.00 | °C |
| 10003 | 02/09/2026 | 14:55:47 | MB-L5-01Mainboard Lantai 5 | L5-AI-02 | Analog Input 2 | 3.05 | V |
| 10004 | 02/09/2026 | 14:55:47 | MB-L3-01Mainboard Lantai 3 | L3-BGT-03 | Black Globe Temperature 3 | 28.90 | °C |
| 10005 | 02/09/2026 | 14:55:47 | MB-L5-01Mainboard Lantai 5 | L5-SHT-01-RH | SHT20 1 Humidity | 48.30 | %RH |
| 10006 | 02/09/2026 | 14:55:47 | MB-L3-01Mainboard Lantai 3 | L3-LUX-05 | Illuminance / LUX 5 | 56.60 | lux |
| 10007 | 02/09/2026 | 14:55:47 | MB-L3-01Mainboard Lantai 3 | L3-ST-02 | Surface Temperature 2 | 29.70 | °C |
| 10008 | 02/09/2026 | 14:55:47 | MB-L5-01Mainboard Lantai 5 | L5-LUX-01 | Illuminance / LUX 1 | 208.50 | lux |
| 10009 | 02/09/2026 | 14:55:47 | MB-L5-01Mainboard Lantai 5 | L5-AI-01 | Analog Input 1 | 3.05 | V |
| 10010 | 02/09/2026 | 14:55:47 | MB-L3-01Mainboard Lantai 3 | L3-AI-06 | Analog Input 6 | 3.12 | V |
| 10011 | 02/09/2026 | 14:55:47 | MB-L3-01Mainboard Lantai 3 | L3-LUX-06 | Illuminance / LUX 6 | 31.30 | lux |
| 10012 | 02/09/2026 | 14:55:47 | MB-L3-01Mainboard Lantai 3 | L3-AI-01 | Analog Input 1 | 3.12 | V |
| 10013 | 02/09/2026 | 14:55:47 | MB-L5-01Mainboard Lantai 5 | L5-BGT-03 | Black Globe Temperature 3 | 29.90 | °C |
| 10014 | 02/09/2026 | 14:55:47 | MB-L3-01Mainboard Lantai 3 | L3-SHT-01-T | SHT20 1 Temperature | 32.10 | °C |
| 10015 | 02/09/2026 | 14:55:47 | MB-L3-01Mainboard Lantai 3 | L3-HFT-01 | Heat Flow Temperature 1 | 29.40 | °C |
| 10016 | 02/09/2026 | 14:55:47 | MB-L5-01Mainboard Lantai 5 | L5-LUX-03 | Illuminance / LUX 3 | 179.80 | lux |
| 10017 | 02/09/2026 | 14:55:47 | MB-L5-01Mainboard Lantai 5 | L5-BGT-02 | Black Globe Temperature 2 | 29.90 | °C |
| 10018 | 02/09/2026 | 14:55:47 | MB-L3-01Mainboard Lantai 3 | L3-LUX-02 | Illuminance / LUX 2 | 19.40 | lux |
| 10019 | 02/09/2026 | 14:55:47 | MB-L3-01Mainboard Lantai 3 | L3-SHT-01-RH | SHT20 1 Humidity | 48.20 | %RH |
| 10020 | 02/09/2026 | 14:55:47 | MB-L5-01Mainboard Lantai 5 | L5-BGT-01 | Black Globe Temperature 1 | 29.90 | °C |
| 10021 | 02/09/2026 | 14:55:47 | MB-L3-01Mainboard Lantai 3 | L3-AI-02 | Analog Input 2 | 3.12 | V |
| 10022 | 02/09/2026 | 14:55:47 | MB-L5-01Mainboard Lantai 5 | L5-SHT-01-T | SHT20 1 Temperature | 32.30 | °C |
| 10023 | 02/09/2026 | 14:55:47 | MB-L3-01Mainboard Lantai 3 | L3-LUX-04 | Illuminance / LUX 4 | 102.40 | lux |
| 10024 | 02/09/2026 | 14:55:47 | MB-L5-01Mainboard Lantai 5 | L5-HFT-02 | Heat Flow Temperature 2 | 30.00 | °C |
| 10025 | 02/09/2026 | 14:55:47 | MB-L3-01Mainboard Lantai 3 | L3-HFT-02 | Heat Flow Temperature 2 | 29.00 | °C |
| 10026 | 02/09/2026 | 14:55:47 | MB-L5-01Mainboard Lantai 5 | L5-HFT-01 | Heat Flow Temperature 1 | 30.20 | °C |
| 10027 | 02/09/2026 | 14:55:47 | MB-L5-01Mainboard Lantai 5 | L5-LUX-06 | Illuminance / LUX 6 | 247.20 | lux |
| 10028 | 02/09/2026 | 14:55:47 | MB-L5-01Mainboard Lantai 5 | L5-ST-02 | Surface Temperature 2 | 30.50 | °C |
| 10029 | 02/09/2026 | 14:55:47 | MB-L3-01Mainboard Lantai 3 | L3-LUX-03 | Illuminance / LUX 3 | 153.80 | lux |
| 10030 | 02/09/2026 | 14:55:47 | MB-L5-01Mainboard Lantai 5 | L5-LUX-04 | Illuminance / LUX 4 | 225.80 | lux |
| 10031 | 02/09/2026 | 14:55:47 | MB-L3-01Mainboard Lantai 3 | L3-AI-03 | Analog Input 3 | 3.12 | V |
| 10032 | 02/09/2026 | 14:55:47 | MB-L5-01Mainboard Lantai 5 | L5-LUX-02 | Illuminance / LUX 2 | 122.40 | lux |
| 10033 | 02/09/2026 | 14:55:47 | MB-L5-01Mainboard Lantai 5 | L5-ST-01 | Surface Temperature 1 | 30.30 | °C |
| 10034 | 02/09/2026 | 14:55:47 | MB-L3-01Mainboard Lantai 3 | L3-SHT-02-RH | SHT20 2 Humidity | 48.20 | %RH |
| 10035 | 02/09/2026 | 14:55:47 | MB-L3-01Mainboard Lantai 3 | L3-BGT-01 | Black Globe Temperature 1 | 29.70 | °C |
| 10036 | 02/09/2026 | 14:55:47 | MB-L5-01Mainboard Lantai 5 | L5-RAD-02 | Radiation 2 | 1.00 | W/m² |
| 10037 | 02/09/2026 | 14:55:47 | MB-L3-01Mainboard Lantai 3 | L3-LUX-01 | Illuminance / LUX 1 | 30.70 | lux |
| 10038 | 02/09/2026 | 14:55:47 | MB-L5-01Mainboard Lantai 5 | L5-LUX-05 | Illuminance / LUX 5 | 435.50 | lux |
| 10039 | 02/09/2026 | 14:55:47 | MB-L3-01Mainboard Lantai 3 | L3-RAD-02 | Radiation 2 | 1.00 | W/m² |
| 10040 | 02/09/2026 | 14:55:47 | MB-L5-01Mainboard Lantai 5 | L5-AI-06 | Analog Input 6 | 3.05 | V |
| 10041 | 02/09/2026 | 14:55:47 | MB-L5-01Mainboard Lantai 5 | L5-SHT-02-RH | SHT20 2 Humidity | 48.10 | %RH |
| 10042 | 02/09/2026 | 14:55:47 | MB-L3-01Mainboard Lantai 3 | L3-AI-04 | Analog Input 4 | 3.12 | V |
| 10043 | 02/09/2026 | 14:55:45 | MB-L3-01Mainboard Lantai 3 | L3-LUX-05 | Illuminance / LUX 5 | 60.10 | lux |
| 10044 | 02/09/2026 | 14:55:45 | MB-L3-01Mainboard Lantai 3 | L3-ST-02 | Surface Temperature 2 | 29.70 | °C |
| 10045 | 02/09/2026 | 14:55:45 | MB-L5-01Mainboard Lantai 5 | L5-LUX-01 | Illuminance / LUX 1 | 208.00 | lux |
| 10046 | 02/09/2026 | 14:55:45 | MB-L5-01Mainboard Lantai 5 | L5-AI-01 | Analog Input 1 | 3.05 | V |
| 10047 | 02/09/2026 | 14:55:45 | MB-L3-01Mainboard Lantai 3 | L3-AI-06 | Analog Input 6 | 3.12 | V |
| 10048 | 02/09/2026 | 14:55:45 | MB-L3-01Mainboard Lantai 3 | L3-LUX-06 | Illuminance / LUX 6 | 31.30 | lux |
| 10049 | 02/09/2026 | 14:55:45 | MB-L3-01Mainboard Lantai 3 | L3-AI-01 | Analog Input 1 | 3.12 | V |
| 10050 | 02/09/2026 | 14:55:45 | MB-L5-01Mainboard Lantai 5 | L5-BGT-03 | Black Globe Temperature 3 | 29.90 | °C |
| 10051 | 02/09/2026 | 14:55:45 | MB-L3-01Mainboard Lantai 3 | L3-SHT-01-T | SHT20 1 Temperature | 32.10 | °C |
| 10052 | 02/09/2026 | 14:55:45 | MB-L3-01Mainboard Lantai 3 | L3-HFT-01 | Heat Flow Temperature 1 | 29.40 | °C |
| 10053 | 02/09/2026 | 14:55:45 | MB-L5-01Mainboard Lantai 5 | L5-LUX-03 | Illuminance / LUX 3 | 176.70 | lux |
| 10054 | 02/09/2026 | 14:55:45 | MB-L5-01Mainboard Lantai 5 | L5-BGT-02 | Black Globe Temperature 2 | 29.90 | °C |
| 10055 | 02/09/2026 | 14:55:45 | MB-L3-01Mainboard Lantai 3 | L3-LUX-02 | Illuminance / LUX 2 | 44.60 | lux |
| 10056 | 02/09/2026 | 14:55:45 | MB-L3-01Mainboard Lantai 3 | L3-SHT-01-RH | SHT20 1 Humidity | 48.30 | %RH |
| 10057 | 02/09/2026 | 14:55:45 | MB-L5-01Mainboard Lantai 5 | L5-BGT-01 | Black Globe Temperature 1 | 30.00 | °C |
| 10058 | 02/09/2026 | 14:55:45 | MB-L3-01Mainboard Lantai 3 | L3-AI-02 | Analog Input 2 | 3.12 | V |
| 10059 | 02/09/2026 | 14:55:45 | MB-L5-01Mainboard Lantai 5 | L5-SHT-01-T | SHT20 1 Temperature | 32.30 | °C |
| 10060 | 02/09/2026 | 14:55:45 | MB-L3-01Mainboard Lantai 3 | L3-LUX-04 | Illuminance / LUX 4 | 108.30 | lux |
| 10061 | 02/09/2026 | 14:55:45 | MB-L5-01Mainboard Lantai 5 | L5-HFT-02 | Heat Flow Temperature 2 | 30.00 | °C |
| 10062 | 02/09/2026 | 14:55:45 | MB-L3-01Mainboard Lantai 3 | L3-HFT-02 | Heat Flow Temperature 2 | 28.90 | °C |
| 10063 | 02/09/2026 | 14:55:45 | MB-L5-01Mainboard Lantai 5 | L5-HFT-01 | Heat Flow Temperature 1 | 30.00 | °C |
| 10064 | 02/09/2026 | 14:55:45 | MB-L5-01Mainboard Lantai 5 | L5-LUX-06 | Illuminance / LUX 6 | 239.60 | lux |
| 10065 | 02/09/2026 | 14:55:45 | MB-L5-01Mainboard Lantai 5 | L5-ST-02 | Surface Temperature 2 | 30.40 | °C |
| 10066 | 02/09/2026 | 14:55:45 | MB-L3-01Mainboard Lantai 3 | L3-LUX-03 | Illuminance / LUX 3 | 147.50 | lux |
| 10067 | 02/09/2026 | 14:55:45 | MB-L5-01Mainboard Lantai 5 | L5-LUX-04 | Illuminance / LUX 4 | 225.80 | lux |
| 10068 | 02/09/2026 | 14:55:45 | MB-L3-01Mainboard Lantai 3 | L3-AI-03 | Analog Input 3 | 3.12 | V |
| 10069 | 02/09/2026 | 14:55:45 | MB-L5-01Mainboard Lantai 5 | L5-LUX-02 | Illuminance / LUX 2 | 117.90 | lux |
| 10070 | 02/09/2026 | 14:55:45 | MB-L5-01Mainboard Lantai 5 | L5-ST-01 | Surface Temperature 1 | 30.10 | °C |
| 10071 | 02/09/2026 | 14:55:45 | MB-L3-01Mainboard Lantai 3 | L3-SHT-03-RH | SHT20 3 Humidity | 49.10 | %RH |
| 10072 | 02/09/2026 | 14:55:45 | MB-L3-01Mainboard Lantai 3 | L3-SHT-02-RH | SHT20 2 Humidity | 48.40 | %RH |
| 10073 | 02/09/2026 | 14:55:45 | MB-L3-01Mainboard Lantai 3 | L3-BGT-01 | Black Globe Temperature 1 | 29.70 | °C |
| 10074 | 02/09/2026 | 14:55:45 | MB-L5-01Mainboard Lantai 5 | L5-RAD-02 | Radiation 2 | 1.00 | W/m² |
| 10075 | 02/09/2026 | 14:55:45 | MB-L3-01Mainboard Lantai 3 | L3-LUX-01 | Illuminance / LUX 1 | 29.80 | lux |
| 10076 | 02/09/2026 | 14:55:45 | MB-L5-01Mainboard Lantai 5 | L5-LUX-05 | Illuminance / LUX 5 | 421.90 | lux |
| 10077 | 02/09/2026 | 14:55:45 | MB-L3-01Mainboard Lantai 3 | L3-RAD-02 | Radiation 2 | 1.00 | W/m² |
| 10078 | 02/09/2026 | 14:55:45 | MB-L3-01Mainboard Lantai 3 | L3-SHT-03-T | SHT20 3 Temperature | 31.70 | °C |
| 10079 | 02/09/2026 | 14:55:45 | MB-L5-01Mainboard Lantai 5 | L5-AI-06 | Analog Input 6 | 3.05 | V |
| 10080 | 02/09/2026 | 14:55:45 | MB-L5-01Mainboard Lantai 5 | L5-SHT-02-RH | SHT20 2 Humidity | 48.30 | %RH |
| 10081 | 02/09/2026 | 14:55:45 | MB-L3-01Mainboard Lantai 3 | L3-AI-04 | Analog Input 4 | 3.12 | V |
| 10082 | 02/09/2026 | 14:55:45 | MB-L3-01Mainboard Lantai 3 | L3-BGT-02 | Black Globe Temperature 2 | 29.70 | °C |
| 10083 | 02/09/2026 | 14:55:45 | MB-L3-01Mainboard Lantai 3 | L3-RAD-01 | Radiation 1 | 1.00 | W/m² |
| 10084 | 02/09/2026 | 14:55:45 | MB-L5-01Mainboard Lantai 5 | L5-AI-05 | Analog Input 5 | 3.05 | V |
| 10085 | 02/09/2026 | 14:55:45 | MB-L5-01Mainboard Lantai 5 | L5-SHT-03-T | SHT20 3 Temperature | 32.10 | °C |
| 10086 | 02/09/2026 | 14:55:45 | MB-L5-01Mainboard Lantai 5 | L5-SHT-02-T | SHT20 2 Temperature | 32.10 | °C |
| 10087 | 02/09/2026 | 14:55:45 | MB-L5-01Mainboard Lantai 5 | L5-SHT-03-RH | SHT20 3 Humidity | 48.70 | %RH |
| 10088 | 02/09/2026 | 14:55:45 | MB-L5-01Mainboard Lantai 5 | L5-AI-04 | Analog Input 4 | 3.05 | V |
| 10089 | 02/09/2026 | 14:55:45 | MB-L3-01Mainboard Lantai 3 | L3-ST-01 | Surface Temperature 1 | 29.80 | °C |
| 10090 | 02/09/2026 | 14:55:45 | MB-L5-01Mainboard Lantai 5 | L5-AI-03 | Analog Input 3 | 3.05 | V |
| 10091 | 02/09/2026 | 14:55:45 | MB-L3-01Mainboard Lantai 3 | L3-AI-05 | Analog Input 5 | 3.12 | V |
| 10092 | 02/09/2026 | 14:55:45 | MB-L5-01Mainboard Lantai 5 | L5-RAD-01 | Radiation 1 | 1.00 | W/m² |
| 10093 | 02/09/2026 | 14:55:45 | MB-L3-01Mainboard Lantai 3 | L3-SHT-02-T | SHT20 2 Temperature | 32.10 | °C |
| 10094 | 02/09/2026 | 14:55:45 | MB-L5-01Mainboard Lantai 5 | L5-AI-02 | Analog Input 2 | 3.05 | V |
| 10095 | 02/09/2026 | 14:55:45 | MB-L3-01Mainboard Lantai 3 | L3-BGT-03 | Black Globe Temperature 3 | 28.80 | °C |
| 10096 | 02/09/2026 | 14:55:45 | MB-L5-01Mainboard Lantai 5 | L5-SHT-01-RH | SHT20 1 Humidity | 48.50 | %RH |
| 10097 | 02/09/2026 | 14:55:44 | MB-L3-01Mainboard Lantai 3 | L3-HFT-01 | Heat Flow Temperature 1 | 29.40 | °C |
| 10098 | 02/09/2026 | 14:55:44 | MB-L3-01Mainboard Lantai 3 | L3-LUX-02 | Illuminance / LUX 2 | 44.60 | lux |
| 10099 | 02/09/2026 | 14:55:44 | MB-L3-01Mainboard Lantai 3 | L3-SHT-01-RH | SHT20 1 Humidity | 48.50 | %RH |
| 10100 | 02/09/2026 | 14:55:44 | MB-L3-01Mainboard Lantai 3 | L3-AI-02 | Analog Input 2 | 3.12 | V |
Menampilkan maksimal 100 data per halaman